Temperature
17 17 17 17 18 18 18 18 18 18 18 18 18 18 18 18 18 18 18 18 18 18 18 18 18 18 18 18 18 18 18 18 18 18 18 18 18 18 18 18 18 18 18
17 17 17 17 17 17 17 18 18 17 17 17 17 18 17 17 17 17 17 18 18 18 18 18 18 18 18 18 18 18 18 18 18 18 18 18 18 18 18 18 18 18 18
17 17 17 17 17 17 17 17 17 17 17 17 17 17 17 17 17 17 17 17 17 17 17 18 18 18 18 18 18 18 17 17 17 18 18 18 18 18 18 18 18 18 18
17 17 17 17 17 17 17 17 17 17 17 17 17 17 17 17 17 17 17 17 17 17 17 17 17 17 17 17 17 17 17 17 17 17 17 18 18 18 18 18 18 18 18
17 17 17 17 17 17 17 17 17 17 17 17 17 17 17 17 17 17 17 17 17 17 17 17 17 17 17 17 17 17 17 17 17 17 17 17 17 18 18 18 18 18 18
17 17 17 17 17 17 17 17 17 17 17 17 17 17 17 17 17 17 17 17 17 17 17 17 17 17 17 17 17 17 17 17 17 17 17 17 17 17 17 18 18 17 17
17 17 17 17 17 17 17 17 17 17 17 17 17 17 17 17 17 17 17 17 17 17 17 17 17 17 17 17 17 17 17 17 17 17 17 17 17 17 17 17 17 17 17
17 17 17 17 17 17 17 17 16 16 16 16 16 16 16 16 16 16 17 17 17 17 17 17 17 17 17 17 17 17 17 17 17 17 17 17 17 17 17 17 17 17 17
17 17 17 17 17 17 17 16 16 16 16 16 16 16 16 16 16 16 16 16 16 16 16 16 16 16 16 17 17 17 16 16 16 16 16 17 17 17 17 17 17 17 17
18 17 17 17 17 17 17 16 16 16 16 16 16 16 16 16 16 16 16 16 16 16 16 16 16 16 16 16 16 16 16 16 16 16 16 16 16 16 16 16 16 16 16
18 17 17 17 17 17 17 16 16 16 16 16 16 16 16 16 16 16 16 16 16 16 16 16 16 16 16 16 16 16 16 16 16 16 16 16 16 16 16 16 16 16 16
18 17 17 17 17 17 17 16 16 16 16 16 16 16 16 16 16 16 16 16 16 16 16 16 16 16 16 16 16 16 16 16 16 16 16 16 16 16 16 16 16 16 16
18 18 17 17 17 17 17 16 16 16 16 16 16 16 16 16 16 16 16 16 16 16 16 16 16 16 16 16 16 16 16 16 16 16 16 16 16 16 16 15 15 15 15
18 18 18 17 17 17 17 16 16 16 16 16 16 16 16 16 16 16 16 16 16 16 16 16 16 16 16 16 16 16 16 16 16 16 16 16 16 16 15 15 15 15 15
18 18 18 18 17 17 17 17 16 16 16 16 16 16 16 16 16 16 16 16 16 16 16 16 16 16 16 15 15 15 16 15 15 16 15 15 15 15 15 15 15 15 15
18 18 18 17 17 17 17 17 16 16 16 16 16 16 16 16 16 16 16 16 16 15 15 15 15 15 15 15 15 15 15 15 15 15 15 15 15 15 15 15 15 15 15
18 18 18 17 17 17 17 17 16 16 16 16 16 16 16 16 16 16 16 16 15 15 15 15 15 15 15 15 15 15 15 15 15 15 15 15 15 15 15 15 15 15 15
19 18 18 18 17 17 17 17 16 16 16 16 16 16 16 16 16 16 16 15 15 15 15 15 15 15 15 15 15 15 15 15 15 15 15 15 15 15 15 14 14 14 14
19 18 18 18 17 17 17 17 16 16 16 16 16 16 16 16 16 16 15 15 15 15 15 15 15 15 15 15 15 15 14 14 14 14 14 14 14 14 14 14 14 14 14
19 18 18 18 17 17 17 16 16 16 16 16 16 16 16 16 16 15 15 15 15 15 15 15 15 15 15 15 14 14 14 14 14 14 14 14 14 14 14 14 14 14 14
19 18 18 18 17 17 17 16 16 16 16 16 16 16 16 16 15 15 15 15 15 15 15 15 15 15 14 14 14 14 14 14 14 14 14 14 14 14 14 14 14 14 14
19 18 18 18 17 17 17 16 16 16 16 16 16 15 15 15 15 15 15 15 15 15 15 15 15 14 14 14 14 14 14 13 13 13 13 13 14 14 14 14 14 14 14
19 18 18 18 17 17 17 16 16 16 16 16 15 15 15 15 15 15 15 15 15 15 15 15 15 15 14 14 14 14 14 14 13 13 13 13 13 13 13 13 13 13 13
19 18 18 17 17 17 17 16 16 16 16 15 15 15 15 15 15 15 15 15 15 15 15 15 14 14 14 14 14 14 14 14 14 13 13 13 13 13 13 13 13 13 13
19 18 18 17 17 17 16 16 16 16 16 15 15 15 15 15 15 15 15 15 15 15 15 15 15 14 14 14 14 14 14 14 14 14 13 13 13 13 13 13 13 13 13
18 18 18 17 17 17 16 16 16 16 16 16 15 15 15 15 15 15 15 15 15 15 15 14 14 14 14 14 14 14 14 14 14 14 13 13 13 13 13 13 13 13 13
Wind_Speed
0 0 5 7 8 9 10 10 9 10 11 11 11 11 12 12 12 12 12 12 11 11 11 11 11 11 11 11 11 11 11 11 11 11 11 11 10 10 10 10 9 7 9
3 3 6 8 9 9 10 10 10 11 11 11 11 11 11 12 12 12 12 12 12 12 11 11 11 11 11 11 10 10 11 10 11 11 11 10 10 10 10 10 9 7 8
4 4 6 8 8 9 9 10 10 11 11 11 11 11 11 11 11 12 11 11 11 12 12 11 11 11 11 11 10 10 10 9 10 11 10 8 8 10 10 9 9 8 8
4 5 6 8 8 9 10 10 11 11 11 11 11 11 11 11 11 11 11 11 11 11 12 11 11 11 11 11 11 11 10 11 11 10 8 7 7 9 10 9 9 9 8
4 5 7 8 8 9 9 10 10 10 10 10 10 10 10 10 10 10 11 11 11 11 11 11 10 11 11 11 11 11 11 11 11 9 8 7 6 8 9 9 9 9 8
4 5 7 8 8 8 9 9 9 9 10 10 10 10 10 10 10 10 10 10 11 10 10 10 10 10 10 10 10 10 11 11 10 9 7 6 6 8 9 9 8 8 8
4 5 7 8 8 8 9 9 9 8 9 9 10 9 9 10 10 10 10 10 10 10 10 10 10 10 10 10 10 10 11 11 9 8 7 6 7 8 8 8 8 8 8
6 5 6 8 8 8 9 8 8 8 8 9 9 8 9 9 9 9 9 9 9 10 10 10 10 9 10 10 10 10 10 10 8 7 7 6 8 8 8 8 8 8 7
5 5 5 6 7 8 8 8 8 7 7 8 8 8 8 8 8 8 9 9 9 9 9 9 8 8 9 9 10 10 11 11 8 5 6 6 8 8 8 8 8 8 8
5 5 5 5 5 5 6 7 7 6 6 7 7 7 8 8 7 7 8 8 9 9 8 8 7 7 7 8 9 10 10 9 8 6 5 6 8 8 8 8 8 8 8
4 4 4 4 5 5 5 5 5 5 5 5 5 6 6 6 5 5 6 6 7 7 7 7 7 7 7 8 9 9 9 7 7 6 5 7 8 8 8 8 7 8 8
4 5 4 4 4 4 4 4 4 3 3 3 4 5 4 4 4 4 5 5 5 5 5 6 6 7 8 7 8 9 8 8 7 5 6 7 7 8 8 8 8 7 8
5 5 5 5 5 4 3 3 3 3 3 3 4 5 5 4 3 4 3 3 4 4 4 5 5 5 6 6 6 7 7 7 6 6 7 8 8 8 8 8 8 7 7
5 5 5 5 5 4 4 3 3 3 2 3 4 5 5 3 2 2 2 3 3 3 3 4 3 5 6 7 7 7 7 6 6 6 7 8 9 8 8 8 7 7 7
5 5 6 6 6 5 4 3 4 3 3 3 4 5 6 4 2 2 2 3 3 3 3 3 4 5 6 6 6 7 6 7 7 6 6 8 9 9 8 8 7 7 7
6 5 5 6 5 5 4 3 3 3 3 4 4 4 6 5 4 3 3 3 3 3 4 5 5 5 4 5 5 5 6 6 7 6 6 7 8 9 9 8 8 7 7
6 6 6 6 5 5 4 4 4 4 4 3 3 5 6 7 6 5 3 3 3 4 5 6 6 5 4 4 5 5 5 6 6 6 6 6 7 8 8 8 9 9 8
6 6 6 6 6 5 4 4 3 4 4 3 4 6 7 7 7 5 4 3 3 5 5 4 3 4 4 4 4 4 4 4 5 6 6 7 6 6 7 8 9 9 8
7 6 6 6 6 5 5 4 4 4 3 4 5 5 6 7 7 5 3 3 4 4 3 3 3 3 4 4 4 4 4 3 4 5 5 6 6 6 6 7 9 9 8
7 6 7 6 6 5 4 4 3 4 2 3 4 4 5 5 6 6 4 3 5 4 3 3 4 3 3 3 5 5 4 4 4 4 4 5 5 5 6 7 7 8 9
7 7 6 6 5 5 3 3 3 2 1 1 2 3 5 5 6 5 4 3 4 3 3 4 3 4 3 3 4 4 4 4 4 3 4 4 4 5 6 7 7 7 7
7 7 6 6 5 4 3 2 2 2 1 1 1 3 3 5 5 5 4 3 3 3 3 3 3 2 1 2 3 3 2 4 4 4 3 3 3 5 5 6 6 7 7
7 7 7 6 5 4 4 3 3 3 3 3 2 1 1 3 3 4 4 3 3 3 3 2 3 3 2 0 1 3 3 1 1 3 3 3 3 3 3 4 6 6 6
8 7 7 6 5 5 5 5 5 3 2 1 1 0 0 1 3 4 4 4 3 2 3 3 3 2 3 1 0 1 2 4 3 1 3 3 3 3 2 3 4 5 5
7 7 6 6 5 4 5 6 5 3 2 1 1 1 0 0 2 3 4 4 3 2 2 2 2 2 2 2 1 1 2 2 2 3 1 2 3 2 2 2 3 4 4
6 7 6 6 4 4 4 5 5 5 3 2 1 1 1 0 0 1 3 3 2 2 2 2 2 2 2 2 2 2 2 2 2 2 2 1 0 2 2 2 1 2 3
Wind_Direction
286 234 93 88 83 83 86 84 89 89 88 87 87 84 85 89 90 90 88 87 87 85 83 82 84 85 88 94 99 100 100 100 99 96 96 93 91 91 92 91 88 81 88
168 140 108 94 88 87 90 89 92 91 90 89 88 87 87 91 91 92 90 91 90 88 86 82 81 83 85 89 93 97 98 99 97 94 92 89 89 90 90 90 89 87 87
136 123 107 99 94 92 93 91 94 93 92 90 88 88 90 92 92 93 91 92 92 90 88 84 80 81 82 85 87 91 95 99 98 93 88 78 84 89 91 91 90 88 86
131 125 117 106 99 98 97 93 95 95 93 93 91 90 90 91 92 95 96 95 96 93 89 85 83 82 82 84 86 87 88 92 95 92 82 77 84 89 89 90 90 89 84
122 128 127 115 107 104 102 98 97 95 96 94 92 92 93 93 92 94 97 97 97 95 92 88 84 83 82 81 81 80 82 88 90 89 87 80 83 93 92 90 86 84 81
122 130 133 125 116 109 107 106 101 97 98 98 95 93 93 96 94 93 96 98 98 97 96 92 89 86 83 80 79 79 80 82 83 86 86 90 93 99 96 92 87 80 77
133 137 139 130 124 118 114 112 107 102 101 99 97 95 94 93 91 91 94 98 101 100 100 97 92 87 84 79 77 78 77 80 80 85 83 91 96 98 96 94 89 84 81
144 145 141 133 127 124 120 117 114 108 105 101 96 97 97 95 93 94 96 99 103 105 104 100 96 90 84 78 75 76 77 79 80 84 77 86 96 95 94 93 85 82 78
142 140 145 137 132 131 128 125 121 113 108 109 103 99 99 97 95 97 99 99 104 105 103 100 97 92 86 80 77 79 79 79 74 80 82 84 95 95 95 91 84 81 77
143 144 151 147 141 142 138 135 132 126 119 118 115 104 98 96 96 99 103 104 106 105 101 99 96 90 84 80 80 80 77 72 66 68 77 87 93 92 92 89 84 81 78
154 162 162 160 163 164 158 146 143 137 129 125 117 112 100 83 81 92 105 110 112 111 104 96 89 82 78 76 78 79 74 67 61 65 78 86 86 86 84 85 83 81 78
170 172 166 165 171 176 156 139 145 142 117 118 119 117 115 103 92 91 92 102 104 101 98 93 84 72 67 66 73 76 73 68 61 63 79 90 89 86 82 82 84 81 77
167 155 160 162 158 152 136 128 128 128 111 112 123 125 118 106 91 80 72 61 62 68 67 70 65 61 69 75 78 78 77 74 71 66 74 84 86 85 81 81 81 76 75
134 137 143 148 140 138 134 123 123 123 118 111 119 126 121 107 95 91 85 71 60 62 66 62 70 71 75 84 88 84 82 84 80 72 72 79 81 80 77 77 76 72 71
119 120 131 139 138 135 124 125 116 117 121 116 111 118 121 116 110 93 79 78 74 82 90 85 82 83 79 82 85 88 88 88 85 78 68 71 72 71 75 76 76 73 73
120 118 121 127 132 126 122 118 120 124 123 106 97 106 118 117 110 101 91 82 84 88 93 94 93 90 83 82 74 79 85 90 89 83 71 61 63 66 64 67 71 75 76
134 124 122 130 119 116 121 126 117 119 111 100 94 97 112 115 112 111 98 80 86 92 88 85 83 86 84 77 69 70 76 80 87 82 74 64 60 61 60 63 68 69 74
137 133 133 132 116 112 109 110 107 108 103 96 91 95 110 117 114 107 98 88 95 98 94 89 85 85 77 73 68 64 65 70 76 82 79 71 64 56 57 63 66 64 66
140 133 123 121 119 117 111 100 94 93 93 95 89 90 103 108 108 106 102 105 102 97 92 101 90 97 90 78 74 64 55 55 56 76 79 75 69 61 56 55 57 55 56
138 130 123 121 119 112 97 87 73 71 66 80 91 97 108 112 111 109 104 101 99 90 83 91 97 83 92 91 82 64 47 44 48 55 69 70 65 65 62 56 48 44 45
131 130 128 125 125 115 104 101 95 85 71 59 82 107 117 119 117 115 111 100 98 99 108 110 107 96 86 99 86 55 35 34 42 37 49 59 56 59 63 58 53 49 44
140 141 139 143 139 131 129 133 133 129 111 80 43 73 111 123 126 124 124 120 114 108 100 104 111 108 111 120 112 95 44 15 17 25 30 53 50 54 56 60 59 55 51
143 151 153 152 146 143 132 108 83 63 47 36 30 36 83 128 134 130 131 125 124 123 132 138 137 138 150 200 135 137 136 176 350 2 17 29 34 51 50 60 61 55 54
159 154 145 147 150 147 132 127 128 125 140 206 208 230 68 143 141 138 136 140 139 134 144 161 146 149 144 146 35 93 147 151 144 68 357 7 21 36 35 59 62 60 59
154 149 147 143 146 149 142 144 139 137 170 189 138 116 72 39 155 144 140 139 144 157 167 158 141 146 148 151 158 122 93 87 106 137 153 342 2 357 8 46 69 65 59
148 146 145 146 150 155 152 150 151 157 163 151 142 143 166 225 100 146 143 145 160 170 181 176 163 163 169 161 161 153 153 150 157 142 153 170 325 327 358 14 58 76 68
Height
1530 1529 1528 1527 1526 1525 1525 1524 1524 1524 1523 1523 1523 1523 1523 1523 1522 1523 1523 1522 1523 1523 1522 1522 1521 1521 1521 1523 1524 1525 1526 1527 1527 1528 1528 1529 1529 1529 1529 1530 1529 1529 1529
1531 1530 1529 1528 1527 1526 1525 1525 1524 1524 1524 1524 1524 1523 1523 1523 1523 1523 1523 1523 1524 1524 1524 1524 1524 1524 1524 1525 1526 1526 1527 1528 1528 1529 1529 1529 1530 1530 1530 1530 1530 1530 1530
1531 1530 1529 1528 1528 1527 1526 1525 1525 1524 1524 1524 1524 1524 1524 1524 1524 1524 1524 1524 1525 1525 1525 1525 1525 1525 1525 1526 1526 1527 1528 1529 1529 1530 1530 1530 1531 1531 1531 1531 1531 1531 1531
1531 1530 1530 1529 1528 1527 1527 1526 1525 1525 1525 1525 1525 1525 1525 1525 1525 1525 1526 1525 1525 1526 1526 1526 1526 1526 1527 1527 1528 1528 1529 1530 1530 1530 1531 1531 1531 1532 1532 1532 1531 1531 1531
1531 1531 1530 1529 1529 1528 1528 1527 1527 1527 1527 1527 1527 1526 1526 1526 1526 1526 1527 1526 1526 1527 1527 1527 1528 1528 1528 1529 1529 1529 1530 1530 1531 1531 1532 1532 1532 1532 1532 1532 1532 1532 1532
1532 1531 1531 1530 1530 1529 1529 1528 1528 1528 1528 1528 1528 1527 1527 1527 1527 1528 1528 1528 1528 1528 1528 1528 1529 1529 1530 1530 1530 1531 1531 1531 1532 1532 1532 1533 1533 1533 1533 1533 1532 1532 1532
1533 1533 1532 1531 1531 1530 1530 1529 1529 1529 1529 1529 1529 1529 1529 1529 1529 1529 1529 1529 1529 1529 1530 1530 1530 1531 1531 1531 1531 1532 1532 1532 1533 1533 1533 1533 1534 1534 1533 1533 1533 1533 1532
1534 1534 1533 1532 1532 1531 1531 1531 1530 1530 1530 1530 1530 1530 1530 1530 1530 1530 1530 1530 1530 1531 1531 1531 1532 1532 1533 1533 1533 1533 1533 1533 1534 1534 1534 1534 1534 1534 1534 1533 1533 1533 1533
1535 1535 1534 1534 1533 1533 1532 1532 1532 1532 1532 1532 1531 1531 1531 1531 1531 1531 1531 1531 1531 1532 1532 1533 1533 1534 1534 1534 1534 1534 1534 1535 1535 1535 1535 1535 1535 1535 1534 1534 1533 1533 1533
1537 1536 1536 1536 1535 1535 1534 1534 1534 1534 1533 1533 1533 1533 1533 1533 1533 1533 1533 1533 1533 1533 1534 1534 1535 1535 1535 1535 1535 1536 1536 1536 1536 1536 1536 1536 1536 1535 1535 1534 1534 1533 1533
1538 1537 1537 1537 1537 1536 1536 1536 1535 1535 1535 1535 1535 1535 1534 1534 1534 1534 1534 1534 1535 1535 1535 1536 1536 1536 1536 1536 1536 1537 1537 1537 1537 1537 1537 1537 1536 1536 1535 1535 1534 1534 1533
1538 1538 1538 1538 1538 1537 1537 1537 1537 1537 1537 1537 1536 1536 1536 1536 1536 1536 1536 1536 1536 1536 1537 1537 1537 1537 1537 1537 1537 1538 1538 1538 1538 1538 1538 1537 1537 1536 1536 1535 1535 1534 1533
1539 1539 1539 1539 1539 1539 1539 1538 1538 1538 1538 1538 1538 1538 1538 1538 1537 1537 1537 1537 1538 1538 1538 1538 1539 1538 1538 1539 1539 1539 1539 1539 1539 1539 1539 1538 1537 1537 1536 1536 1535 1534 1534
1540 1539 1540 1540 1540 1540 1540 1540 1540 1540 1540 1540 1539 1539 1539 1539 1539 1539 1539 1539 1539 1539 1539 1540 1540 1539 1539 1540 1540 1540 1540 1540 1540 1539 1539 1539 1538 1538 1537 1536 1535 1535 1534
1540 1541 1541 1541 1541 1541 1541 1541 1541 1541 1541 1541 1541 1541 1540 1540 1540 1540 1540 1540 1540 1540 1540 1541 1540 1540 1541 1541 1541 1541 1540 1540 1540 1540 1540 1540 1539 1539 1538 1537 1536 1535 1535
1541 1541 1542 1542 1542 1542 1542 1542 1542 1542 1542 1542 1542 1542 1542 1542 1542 1541 1541 1541 1541 1541 1541 1541 1541 1541 1542 1542 1542 1542 1541 1541 1541 1541 1541 1540 1540 1539 1539 1538 1537 1536 1535
1542 1542 1542 1543 1543 1543 1543 1543 1543 1543 1543 1543 1543 1543 1543 1543 1543 1543 1542 1542 1542 1542 1542 1542 1543 1543 1543 1542 1542 1542 1542 1542 1542 1542 1541 1541 1541 1540 1539 1538 1537 1537 1536
1542 1542 1543 1543 1544 1544 1544 1544 1544 1544 1544 1544 1544 1544 1544 1544 1544 1544 1543 1543 1543 1543 1543 1543 1543 1543 1543 1543 1543 1543 1543 1543 1543 1542 1542 1542 1541 1541 1540 1539 1538 1537 1537
1542 1543 1543 1544 1544 1544 1545 1545 1545 1545 1545 1545 1545 1545 1545 1545 1545 1545 1544 1544 1544 1544 1544 1544 1544 1544 1544 1544 1544 1544 1544 1544 1544 1543 1543 1542 1542 1541 1541 1540 1540 1538 1537
1543 1543 1544 1544 1545 1545 1545 1545 1546 1546 1546 1546 1546 1546 1546 1546 1546 1545 1545 1545 1545 1545 1545 1545 1545 1545 1545 1545 1544 1544 1545 1545 1545 1544 1544 1543 1543 1542 1542 1541 1540 1539 1538
1543 1543 1544 1544 1545 1545 1545 1545 1546 1546 1547 1547 1547 1547 1547 1547 1546 1546 1545 1545 1546 1546 1545 1545 1545 1545 1545 1545 1545 1545 1546 1546 1545 1545 1545 1544 1544 1543 1543 1542 1541 1540 1539
1542 1543 1544 1545 1545 1545 1545 1546 1546 1546 1547 1547 1547 1547 1547 1547 1547 1547 1546 1546 1546 1546 1546 1546 1546 1546 1546 1546 1546 1546 1546 1548 1546 1546 1546 1545 1545 1544 1543 1543 1542 1541 1540
1542 1543 1544 1545 1545 1545 1546 1546 1546 1546 1546 1547 1547 1547 1547 1547 1547 1547 1547 1547 1546 1546 1546 1546 1546 1546 1546 1546 1547 1547 1547 1547 1547 1547 1547 1546 1546 1545 1544 1544 1543 1542 1541
1541 1543 1544 1544 1545 1545 1546 1546 1546 1546 1546 1547 1547 1547 1547 1548 1548 1547 1547 1547 1547 1547 1546 1546 1546 1546 1546 1546 1547 1547 1547 1547 1547 1547 1548 1547 1546 1546 1545 1544 1544 1543 1542
1541 1542 1543 1544 1545 1545 1546 1546 1546 1546 1547 1547 1547 1547 1547 1548 1548 1547 1547 1547 1547 1547 1547 1547 1546 1546 1546 1546 1546 1546 1546 1547 1546 1547 1547 1547 1547 1546 1545 1545 1544 1544 1543
1540 1541 1542 1543 1544 1545 1546 1546 1546 1546 1547 1547 1547 1547 1547 1548 1548 1547 1547 1547 1547 1547 1547 1547 1546 1546 1546 1546 1546 1546 1546 1546 1546 1546 1546 1546 1546 1546 1546 1545 1545 1544 1543